Wetterdaten: Donnerstag, 19.11.2015
Datum Zeit Auen-Temp. Temp gefhlt Luftfeuchte Luftdruck Regen Wind Richtung Richtung Taupunkt Windben
19.11.2015 00:00 10,5 C 10,0 C 50 % 1020,8 hPa 0,0 mm 17,9 km/h (3 Bft) W 270 0,5 C 18,9 km/h (3 Bft)
19.11.2015 00:05 10,4 C 9,9 C 49 % 1020,8 hPa 0,0 mm 17,9 km/h (3 Bft) W-SW 247 0,2 C 23,3 km/h (4 Bft)
19.11.2015 00:10 10,3 C 9,9 C 49 % 1020,8 hPa 0,0 mm 16,6 km/h (3 Bft) W-SW 247 0,1 C 23,3 km/h (4 Bft)
19.11.2015 00:15 10,3 C 9,9 C 49 % 1020,8 hPa 0,0 mm 18,1 km/h (3 Bft) SW 225 0,1 C 28,5 km/h (4 Bft)
19.11.2015 00:20 10,4 C 9,9 C 48 % 1020,8 hPa 0,0 mm 18,4 km/h (3 Bft) W-SW 247 -0,1 C 26,4 km/h (4 Bft)
19.11.2015 00:25 10,3 C 9,8 C 48 % 1020,8 hPa 0,0 mm 19,2 km/h (3 Bft) S 180 -0,2 C 17,6 km/h (3 Bft)
19.11.2015 00:30 10,1 C 9,7 C 49 % 1020,8 hPa 0,0 mm 17,9 km/h (3 Bft) W 270 -0,1 C 27,7 km/h (4 Bft)
19.11.2015 00:35 10,1 C 9,5 C 49 % 1020,8 hPa 0,0 mm 15,8 km/h (3 Bft) W 270 -0,1 C 25,4 km/h (4 Bft)
19.11.2015 00:40 9,9 C 9,6 C 49 % 1020,8 hPa 0,0 mm 12,7 km/h (3 Bft) W 270 -0,3 C 16,3 km/h (3 Bft)
19.11.2015 00:45 9,9 C 9,5 C 49 % 1020,8 hPa 0,0 mm 12,9 km/h (3 Bft) W-SW 247 -0,3 C 11,9 km/h (2 Bft)
19.11.2015 00:50 9,8 C 9,4 C 50 % 1020,9 hPa 0,0 mm 13,5 km/h (3 Bft) W-SW 247 -0,1 C 17,3 km/h (3 Bft)
19.11.2015 00:55 9,7 C 9,3 C 50 % 1020,9 hPa 0,0 mm 12,4 km/h (3 Bft) SW 225 -0,2 C 16,1 km/h (3 Bft)
19.11.2015 01:00 9,7 C 9,2 C 50 % 1020,9 hPa 0,0 mm 11,4 km/h (2 Bft) W-SW 247 -0,2 C 16,3 km/h (3 Bft)
19.11.2015 01:05 9,5 C 9,1 C 50 % 1020,9 hPa 0,0 mm 10,6 km/h (2 Bft) W-NW 292 -0,4 C 26,9 km/h (4 Bft)
19.11.2015 01:10 9,3 C 9,0 C 50 % 1020,8 hPa 0,0 mm 9,8 km/h (2 Bft) W-SW 247 -0,6 C 9,8 km/h (2 Bft)
19.11.2015 01:15 9,4 C 9,0 C 51 % 1020,8 hPa 0,0 mm 10,4 km/h (2 Bft) O 90 -0,2 C 18,4 km/h (3 Bft)
19.11.2015 01:20 9,3 C 8,9 C 51 % 1020,8 hPa 0,0 mm 9,3 km/h (2 Bft) W-SW 247 -0,3 C 8,3 km/h (2 Bft)
19.11.2015 01:25 9,3 C 8,9 C 51 % 1020,8 hPa 0,0 mm 9,6 km/h (2 Bft) SW 225 -0,3 C 10,9 km/h (2 Bft)
19.11.2015 01:30 9,1 C 8,7 C 51 % 1020,8 hPa 0,0 mm 9,6 km/h (2 Bft) W-SW 247 -0,5 C 19,7 km/h (3 Bft)
19.11.2015 01:35 9,1 C 8,8 C 51 % 1020,8 hPa 0,0 mm 9,1 km/h (2 Bft) SW 225 -0,5 C 9,3 km/h (2 Bft)
19.11.2015 01:40 8,8 C 8,6 C 51 % 1020,8 hPa 0,0 mm 7,8 km/h (2 Bft) S 180 -0,8 C 7,3 km/h (2 Bft)
19.11.2015 01:45 8,9 C 8,7 C 51 % 1020,8 hPa 0,0 mm 7,0 km/h (2 Bft) S-SW 202 -0,7 C 8,3 km/h (2 Bft)
19.11.2015 01:50 8,7 C 8,4 C 51 % 1021,0 hPa 0,0 mm 7,8 km/h (2 Bft) SW 225 -0,9 C 20,7 km/h (4 Bft)
19.11.2015 01:55 9,0 C 8,5 C 51 % 1021,0 hPa 0,0 mm 8,8 km/h (2 Bft) S-SW 202 -0,6 C 14,2 km/h (3 Bft)
19.11.2015 02:00 8,9 C 8,4 C 51 % 1021,0 hPa 0,0 mm 10,4 km/h (2 Bft) SW 225 -0,7 C 16,1 km/h (3 Bft)
19.11.2015 02:05 9,0 C 8,6 C 51 % 1021,0 hPa 0,0 mm 10,1 km/h (2 Bft) S 180 -0,6 C 17,6 km/h (3 Bft)
19.11.2015 02:10 9,0 C 8,6 C 50 % 1020,7 hPa 0,0 mm 9,3 km/h (2 Bft) S-SO 157 -0,9 C 12,2 km/h (2 Bft)
19.11.2015 02:15 9,0 C 8,6 C 50 % 1020,7 hPa 0,0 mm 9,1 km/h (2 Bft) SW 225 -0,9 C 10,4 km/h (2 Bft)
19.11.2015 02:20 8,8 C 8,5 C 50 % 1020,7 hPa 0,0 mm 8,0 km/h (2 Bft) S 180 -1,0 C 10,4 km/h (2 Bft)
19.11.2015 02:25 8,9 C 8,5 C 50 % 1020,7 hPa 0,0 mm 7,8 km/h (2 Bft) W-SW 247 -0,9 C 11,4 km/h (2 Bft)
19.11.2015 02:30 9,0 C 8,6 C 51 % 1020,5 hPa 0,0 mm 8,5 km/h (2 Bft) SW 225 -0,6 C 11,4 km/h (2 Bft)
19.11.2015 02:35 9,0 C 8,7 C 51 % 1020,5 hPa 0,0 mm 8,0 km/h (2 Bft) S 180 -0,6 C 7,8 km/h (2 Bft)
19.11.2015 02:40 9,2 C 8,9 C 51 % 1020,5 hPa 0,0 mm 7,8 km/h (2 Bft) W-SW 247 -0,4 C 7,3 km/h (2 Bft)
19.11.2015 02:45 9,3 C 8,9 C 52 % 1020,5 hPa 0,0 mm 8,5 km/h (2 Bft) W-SW 247 -0,0 C 12,4 km/h (3 Bft)
19.11.2015 02:50 9,6 C 9,1 C 52 % 1020,7 hPa 0,0 mm 9,3 km/h (2 Bft) W-SW 247 0,2 C 11,1 km/h (2 Bft)
19.11.2015 02:55 9,5 C 9,1 C 52 % 1020,7 hPa 0,0 mm 8,8 km/h (2 Bft) S-SW 202 0,1 C 15,5 km/h (3 Bft)
19.11.2015 03:00 9,5 C 9,1 C 52 % 1020,7 hPa 0,0 mm 9,6 km/h (2 Bft) S 180 0,1 C 15,8 km/h (3 Bft)
19.11.2015 03:05 9,5 C 9,1 C 53 % 1020,7 hPa 0,0 mm 10,4 km/h (2 Bft) S 180 0,4 C 17,9 km/h (3 Bft)
19.11.2015 03:10 9,6 C 9,2 C 53 % 1020,4 hPa 0,0 mm 11,4 km/h (2 Bft) SW 225 0,5 C 14,0 km/h (3 Bft)
19.11.2015 03:15 9,6 C 9,1 C 53 % 1020,4 hPa 0,0 mm 11,7 km/h (2 Bft) S 180 0,5 C 24,6 km/h (4 Bft)
19.11.2015 03:20 9,7 C 9,3 C 53 % 1020,4 hPa 0,0 mm 11,4 km/h (2 Bft) W-SW 247 0,6 C 8,5 km/h (2 Bft)
19.11.2015 03:25 10,0 C 9,6 C 54 % 1020,4 hPa 0,0 mm 12,7 km/h (3 Bft) SW 225 1,1 C 14,2 km/h (3 Bft)
19.11.2015 03:30 10,2 C 9,7 C 54 % 1020,3 hPa 0,0 mm 13,5 km/h (3 Bft) S 180 1,3 C 15,0 km/h (3 Bft)
19.11.2015 03:35 10,1 C 9,7 C 55 % 1020,3 hPa 0,0 mm 12,4 km/h (3 Bft) SW 225 1,5 C 16,3 km/h (3 Bft)
19.11.2015 03:40 10,0 C 9,6 C 55 % 1020,3 hPa 0,0 mm 10,1 km/h (2 Bft) S-SW 202 1,4 C 14,5 km/h (3 Bft)
19.11.2015 03:45 10,1 C 9,7 C 55 % 1020,3 hPa 0,0 mm 10,1 km/h (2 Bft) W-SW 247 1,5 C 9,8 km/h (2 Bft)
19.11.2015 03:50 10,2 C 9,7 C 55 % 1020,0 hPa 0,0 mm 11,7 km/h (2 Bft) W-SW 247 1,6 C 12,4 km/h (3 Bft)
19.11.2015 03:55 10,2 C 9,7 C 56 % 1020,0 hPa 0,0 mm 11,7 km/h (2 Bft) SW 225 1,8 C 19,7 km/h (3 Bft)
19.11.2015 04:00 10,6 C 10,1 C 55 % 1020,0 hPa 0,0 mm 12,4 km/h (3 Bft) W-SW 247 1,9 C 13,5 km/h (3 Bft)
19.11.2015 04:05 10,8 C 10,3 C 55 % 1020,0 hPa 0,0 mm 15,3 km/h (3 Bft) S 180 2,1 C 35,0 km/h (5 Bft)
19.11.2015 04:10 10,9 C 10,4 C 54 % 1019,4 hPa 0,0 mm 17,1 km/h (3 Bft) NO 45 2,0 C 28,2 km/h (4 Bft)
19.11.2015 04:15 10,9 C 10,4 C 54 % 1019,4 hPa 0,0 mm 15,8 km/h (3 Bft) W-SW 247 2,0 C 17,6 km/h (3 Bft)
19.11.2015 04:20 10,9 C 10,5 C 54 % 1019,4 hPa 0,0 mm 14,2 km/h (3 Bft) SW 225 2,0 C 17,1 km/h (3 Bft)
19.11.2015 04:25 10,7 C 10,3 C 54 % 1019,4 hPa 0,0 mm 11,9 km/h (2 Bft) W 270 1,8 C 9,3 km/h (2 Bft)
19.11.2015 04:30 10,9 C 10,5 C 53 % 1019,4 hPa 0,0 mm 11,1 km/h (2 Bft) W 270 1,7 C 5,7 km/h (1 Bft)
19.11.2015 04:35 10,8 C 10,4 C 53 % 1019,4 hPa 0,0 mm 10,6 km/h (2 Bft) S-SW 202 1,6 C 14,8 km/h (3 Bft)
19.11.2015 04:38 10,8 C 10,4 C 53 % 1019,4 hPa 0,0 mm 10,6 km/h (2 Bft) S-SW 202 1,6 C 14,8 km/h (3 Bft)
19.11.2015 04:40 11,0 C 10,5 C 52 % 1019,4 hPa 0,0 mm 11,4 km/h (2 Bft) W-SW 247 1,5 C 35,0 km/h (5 Bft)
19.11.2015 04:45 11,1 C 10,7 C 51 % 1019,4 hPa 0,0 mm 11,4 km/h (2 Bft) SW 225 1,4 C 7,8 km/h (2 Bft)
19.11.2015 04:50 10,8 C 10,6 C 51 % 1019,6 hPa 0,0 mm 9,8 km/h (2 Bft) W 270 1,1 C 12,4 km/h (3 Bft)
19.11.2015 04:55 11,1 C 10,8 C 51 % 1019,6 hPa 0,0 mm 9,3 km/h (2 Bft) W-SW 247 1,4 C 15,8 km/h (3 Bft)
19.11.2015 05:00 11,1 C 10,8 C 49 % 1019,6 hPa 0,0 mm 9,3 km/h (2 Bft) SW 225 0,8 C 17,6 km/h (3 Bft)
19.11.2015 05:05 11,1 C 10,8 C 49 % 1019,6 hPa 0,0 mm 9,3 km/h (2 Bft) S 180 0,8 C 11,1 km/h (2 Bft)
19.11.2015 05:10 11,0 C 10,8 C 48 % 1019,4 hPa 0,0 mm 9,1 km/h (2 Bft) W 270 0,4 C 4,1 km/h (1 Bft)
19.11.2015 05:15 10,8 C 10,6 C 48 % 1019,4 hPa 0,0 mm 8,3 km/h (2 Bft) S 180 0,2 C 13,7 km/h (3 Bft)
19.11.2015 05:20 11,0 C 10,8 C 48 % 1019,4 hPa 0,0 mm 8,5 km/h (2 Bft) W-SW 247 0,4 C 14,0 km/h (3 Bft)
19.11.2015 05:25 11,1 C 10,8 C 48 % 1019,4 hPa 0,0 mm 10,1 km/h (2 Bft) W-SW 247 0,5 C 16,8 km/h (3 Bft)
19.11.2015 05:30 11,6 C 11,1 C 47 % 1019,2 hPa 0,0 mm 11,7 km/h (2 Bft) SW 225 0,7 C 14,8 km/h (3 Bft)
19.11.2015 05:35 11,3 C 11,0 C 47 % 1019,2 hPa 0,0 mm 11,4 km/h (2 Bft) W-SW 247 0,4 C 7,5 km/h (2 Bft)
19.11.2015 05:40 11,3 C 11,0 C 47 % 1019,2 hPa 0,0 mm 9,6 km/h (2 Bft) S-SW 202 0,4 C 18,1 km/h (3 Bft)
19.11.2015 05:45 11,5 C 11,1 C 47 % 1019,2 hPa 0,0 mm 9,8 km/h (2 Bft) S 180 0,6 C 16,3 km/h (3 Bft)
19.11.2015 05:50 11,3 C 11,0 C 47 % 1018,8 hPa 0,0 mm 9,6 km/h (2 Bft) W-SW 247 0,4 C 9,8 km/h (2 Bft)
19.11.2015 05:55 11,2 C 11,0 C 48 % 1018,8 hPa 0,0 mm 8,8 km/h (2 Bft) S 180 0,6 C 15,8 km/h (3 Bft)
19.11.2015 06:00 11,5 C 11,1 C 48 % 1018,8 hPa 0,0 mm 9,8 km/h (2 Bft) SW 225 0,9 C 12,4 km/h (3 Bft)
19.11.2015 06:05 11,6 C 11,2 C 48 % 1018,8 hPa 0,0 mm 11,1 km/h (2 Bft) W-SW 247 1,0 C 10,6 km/h (2 Bft)
19.11.2015 06:10 11,8 C 11,4 C 49 % 1018,3 hPa 0,0 mm 12,2 km/h (2 Bft) W 270 1,4 C 15,5 km/h (3 Bft)
19.11.2015 06:15 11,5 C 11,3 C 49 % 1018,3 hPa 0,0 mm 10,4 km/h (2 Bft) W 270 1,2 C 6,5 km/h (2 Bft)
19.11.2015 06:20 10,5 C 10,8 C 50 % 1018,3 hPa 0,0 mm 5,7 km/h (1 Bft) W 270 0,5 C 6,2 km/h (2 Bft)
19.11.2015 06:25 10,2 C 10,4 C 51 % 1018,3 hPa 0,0 mm 4,4 km/h (1 Bft) W 270 0,5 C 7,0 km/h (2 Bft)
19.11.2015 06:30 9,9 C 10,1 C 52 % 1018,9 hPa 0,0 mm 4,7 km/h (1 Bft) W-SW 247 0,5 C 4,1 km/h (1 Bft)
19.11.2015 06:35 9,9 C 10,0 C 53 % 1018,9 hPa 0,0 mm 5,4 km/h (1 Bft) W-NW 292 0,8 C 8,0 km/h (2 Bft)
19.11.2015 06:40 10,1 C 10,0 C 54 % 1018,9 hPa 0,0 mm 5,4 km/h (1 Bft) W-SW 247 1,2 C 6,2 km/h (2 Bft)
19.11.2015 06:45 10,2 C 10,1 C 55 % 1018,9 hPa 0,0 mm 6,0 km/h (2 Bft) S 180 1,6 C 5,7 km/h (1 Bft)
19.11.2015 06:50 10,5 C 10,3 C 55 % 1019,2 hPa 0,0 mm 7,5 km/h (2 Bft) SW 225 1,8 C 21,0 km/h (4 Bft)
19.11.2015 06:55 10,5 C 10,3 C 55 % 1019,2 hPa 0,0 mm 8,3 km/h (2 Bft) SW 225 1,8 C 7,8 km/h (2 Bft)
19.11.2015 07:00 11,0 C 10,7 C 54 % 1019,2 hPa 0,0 mm 10,4 km/h (2 Bft) W-NW 292 2,1 C 11,7 km/h (2 Bft)
19.11.2015 07:05 11,1 C 10,7 C 55 % 1019,2 hPa 0,0 mm 10,9 km/h (2 Bft) W-SW 247 2,4 C 12,4 km/h (3 Bft)
19.11.2015 07:10 11,0 C 10,7 C 55 % 1019,2 hPa 0,0 mm 10,4 km/h (2 Bft) SW 225 2,3 C 10,6 km/h (2 Bft)
19.11.2015 07:15 11,0 C 10,8 C 56 % 1019,2 hPa 0,0 mm 9,6 km/h (2 Bft) W 270 2,6 C 7,0 km/h (2 Bft)
19.11.2015 07:20 11,9 C 11,4 C 56 % 1019,2 hPa 0,0 mm 14,0 km/h (3 Bft) W 270 3,4 C 39,6 km/h (6 Bft)
19.11.2015 07:25 11,8 C 11,3 C 56 % 1019,2 hPa 0,0 mm 15,8 km/h (3 Bft) W 270 3,3 C 16,1 km/h (3 Bft)
19.11.2015 07:30 11,7 C 11,4 C 56 % 1019,2 hPa 0,0 mm 13,2 km/h (3 Bft) W-SW 247 3,2 C 17,1 km/h (3 Bft)
19.11.2015 07:35 11,6 C 11,3 C 57 % 1019,2 hPa 0,0 mm 12,7 km/h (3 Bft) W-SW 247 3,4 C 10,4 km/h (2 Bft)
19.11.2015 07:40 11,3 C 11,1 C 57 % 1019,2 hPa 0,0 mm 11,4 km/h (2 Bft) W-SW 247 3,1 C 8,0 km/h (2 Bft)
19.11.2015 07:45 11,1 C 11,0 C 57 % 1019,2 hPa 0,0 mm 9,6 km/h (2 Bft) SW 225 2,9 C 14,5 km/h (3 Bft)
19.11.2015 07:50 11,2 C 10,9 C 57 % 1019,6 hPa 0,0 mm 9,8 km/h (2 Bft) W 270 3,0 C 12,7 km/h (3 Bft)
19.11.2015 07:55 11,1 C 10,8 C 57 % 1019,6 hPa 0,0 mm 11,4 km/h (2 Bft) W-SW 247 2,9 C 15,5 km/h (3 Bft)
19.11.2015 08:00 11,0 C 10,7 C 56 % 1019,6 hPa 0,0 mm 11,9 km/h (2 Bft) S 180 2,6 C 9,8 km/h (2 Bft)
19.11.2015 08:05 10,9 C 10,6 C 56 % 1019,6 hPa 0,0 mm 11,1 km/h (2 Bft) W-SW 247 2,5 C 15,0 km/h (3 Bft)
19.11.2015 08:10 10,8 C 10,6 C 56 % 1019,5 hPa 0,0 mm 9,8 km/h (2 Bft) W-SW 247 2,4 C 10,6 km/h (2 Bft)
19.11.2015 08:15 10,7 C 10,6 C 56 % 1019,5 hPa 0,0 mm 8,8 km/h (2 Bft) W-SW 247 2,3 C 10,4 km/h (2 Bft)
19.11.2015 08:20 10,7 C 10,6 C 57 % 1019,5 hPa 0,0 mm 7,8 km/h (2 Bft) W-SW 247 2,5 C 7,8 km/h (2 Bft)
19.11.2015 08:25 10,6 C 10,5 C 57 % 1019,5 hPa 0,0 mm 7,8 km/h (2 Bft) S-SW 202 2,4 C 14,5 km/h (3 Bft)
19.11.2015 08:30 10,7 C 10,5 C 57 % 1019,7 hPa 0,0 mm 9,3 km/h (2 Bft) W-SW 247 2,5 C 15,3 km/h (3 Bft)
19.11.2015 08:35 10,8 C 10,5 C 57 % 1019,7 hPa 0,0 mm 10,9 km/h (2 Bft) SW 225 2,6 C 13,7 km/h (3 Bft)
19.11.2015 08:40 10,6 C 10,4 C 57 % 1019,7 hPa 0,0 mm 11,4 km/h (2 Bft) W-SW 247 2,4 C 11,4 km/h (2 Bft)
19.11.2015 08:45 10,7 C 10,4 C 57 % 1019,7 hPa 0,0 mm 10,1 km/h (2 Bft) S 180 2,5 C 13,7 km/h (3 Bft)
19.11.2015 08:50 10,7 C 10,5 C 57 % 1019,9 hPa 0,0 mm 10,1 km/h (2 Bft) N-NW 337 2,5 C 9,8 km/h (2 Bft)
19.11.2015 08:55 10,7 C 10,5 C 57 % 1019,9 hPa 0,0 mm 10,4 km/h (2 Bft) SW 225 2,5 C 15,0 km/h (3 Bft)
19.11.2015 09:00 10,8 C 10,6 C 58 % 1019,9 hPa 0,0 mm 9,8 km/h (2 Bft) S-SW 202 2,9 C 6,7 km/h (2 Bft)
19.11.2015 09:05 10,8 C 10,6 C 57 % 1019,9 hPa 0,0 mm 9,6 km/h (2 Bft) W-SW 247 2,6 C 16,8 km/h (3 Bft)
19.11.2015 09:10 11,1 C 10,8 C 57 % 1019,7 hPa 0,0 mm 9,6 km/h (2 Bft) SW 225 2,9 C 19,7 km/h (3 Bft)
19.11.2015 09:15 11,3 C 11,1 C 57 % 1019,7 hPa 0,0 mm 9,3 km/h (2 Bft) W-SW 247 3,1 C 7,3 km/h (2 Bft)
19.11.2015 09:20 11,4 C 11,2 C 57 % 1019,7 hPa 0,0 mm 9,8 km/h (2 Bft) W-SW 247 3,2 C 13,7 km/h (3 Bft)
19.11.2015 09:25 11,6 C 11,4 C 56 % 1019,7 hPa 0,0 mm 10,1 km/h (2 Bft) S-SW 202 3,1 C 14,2 km/h (3 Bft)
19.11.2015 09:30 11,5 C 11,4 C 56 % 1019,6 hPa 0,0 mm 9,3 km/h (2 Bft) SW 225 3,0 C 9,8 km/h (2 Bft)
19.11.2015 09:35 11,8 C 11,7 C 56 % 1019,6 hPa 0,0 mm 9,1 km/h (2 Bft) SW 225 3,3 C 6,7 km/h (2 Bft)
19.11.2015 09:40 11,8 C 11,8 C 56 % 1019,6 hPa 0,0 mm 9,3 km/h (2 Bft) W 270 3,3 C 7,8 km/h (2 Bft)
19.11.2015 09:45 12,0 C 12,2 C 56 % 1019,6 hPa 0,0 mm 8,8 km/h (2 Bft) W 270 3,5 C 12,7 km/h (3 Bft)
19.11.2015 09:50 12,6 C 12,5 C 56 % 1019,8 hPa 0,0 mm 11,4 km/h (2 Bft) S 180 4,1 C 12,7 km/h (3 Bft)
19.11.2015 09:55 12,7 C 12,7 C 56 % 1019,8 hPa 0,0 mm 11,9 km/h (2 Bft) W 270 4,2 C 14,2 km/h (3 Bft)
19.11.2015 10:00 12,8 C 12,9 C 55 % 1019,8 hPa 0,0 mm 11,7 km/h (2 Bft) SW 225 4,0 C 13,5 km/h (3 Bft)
19.11.2015 10:05 12,7 C 12,9 C 55 % 1019,8 hPa 0,0 mm 12,4 km/h (3 Bft) SW 225 3,9 C 15,3 km/h (3 Bft)
19.11.2015 10:10 12,8 C 12,8 C 55 % 1019,9 hPa 0,0 mm 14,5 km/h (3 Bft) S-SO 157 4,0 C 23,0 km/h (4 Bft)
19.11.2015 10:15 12,7 C 12,7 C 55 % 1019,9 hPa 0,0 mm 13,7 km/h (3 Bft) W 270 3,9 C 10,4 km/h (2 Bft)
19.11.2015 10:20 12,9 C 12,9 C 55 % 1019,9 hPa 0,0 mm 12,4 km/h (3 Bft) SW 225 4,1 C 13,7 km/h (3 Bft)
19.11.2015 10:25 12,9 C 12,9 C 55 % 1019,9 hPa 0,0 mm 10,6 km/h (2 Bft) S 180 4,1 C 24,6 km/h (4 Bft)
19.11.2015 10:30 13,2 C 13,1 C 54 % 1019,8 hPa 0,0 mm 12,7 km/h (3 Bft) W-SW 247 4,1 C 14,8 km/h (3 Bft)
19.11.2015 10:35 13,2 C 13,1 C 54 % 1019,8 hPa 0,0 mm 13,2 km/h (3 Bft) W-SW 247 4,1 C 15,0 km/h (3 Bft)
19.11.2015 10:39 13,2 C 11,8 C 54 % 1019,8 hPa 0,0 mm 13,5 km/h (3 Bft) NW 315 4,1 C 17,9 km/h (3 Bft)
19.11.2015 10:40 13,2 C 13,2 C 54 % 1019,8 hPa 0,0 mm 13,5 km/h (3 Bft) NW 315 4,1 C 17,9 km/h (3 Bft)
19.11.2015 10:45 13,1 C 13,2 C 54 % 1019,8 hPa 0,0 mm 13,7 km/h (3 Bft) NW 315 4,0 C 19,7 km/h (3 Bft)
19.11.2015 10:50 13,2 C 13,2 C 54 % 1020,2 hPa 0,0 mm 13,7 km/h (3 Bft) W-SW 247 4,1 C 17,1 km/h (3 Bft)
19.11.2015 10:55 13,2 C 13,2 C 54 % 1020,2 hPa 0,0 mm 16,3 km/h (3 Bft) W 270 4,1 C 22,8 km/h (4 Bft)
19.11.2015 11:00 13,2 C 13,1 C 55 % 1020,2 hPa 0,0 mm 19,9 km/h (4 Bft) NW 315 4,4 C 45,8 km/h (6 Bft)
19.11.2015 11:05 13,2 C 13,1 C 55 % 1020,2 hPa 0,0 mm 18,4 km/h (3 Bft) W 270 4,4 C 13,5 km/h (3 Bft)
19.11.2015 11:10 13,2 C 13,2 C 55 % 1020,2 hPa 0,0 mm 15,8 km/h (3 Bft) W 270 4,4 C 19,9 km/h (4 Bft)
19.11.2015 11:15 13,2 C 13,2 C 55 % 1020,2 hPa 0,0 mm 15,8 km/h (3 Bft) W-SW 247 4,4 C 16,3 km/h (3 Bft)
19.11.2015 11:20 13,3 C 13,4 C 56 % 1020,2 hPa 0,0 mm 15,8 km/h (3 Bft) S 180 4,7 C 30,8 km/h (5 Bft)
19.11.2015 11:25 13,3 C 13,5 C 56 % 1020,2 hPa 0,0 mm 16,3 km/h (3 Bft) N 360 4,7 C 32,9 km/h (5 Bft)
19.11.2015 11:30 13,4 C 13,5 C 56 % 1020,0 hPa 0,0 mm 19,2 km/h (3 Bft) O-NO 67 4,8 C 31,1 km/h (5 Bft)
19.11.2015 11:35 13,5 C 13,5 C 56 % 1020,0 hPa 0,0 mm 19,7 km/h (3 Bft) W 270 4,9 C 17,1 km/h (3 Bft)
19.11.2015 11:40 13,5 C 13,7 C 56 % 1020,0 hPa 0,0 mm 17,1 km/h (3 Bft) W-SW 247 4,9 C 20,7 km/h (4 Bft)
19.11.2015 11:45 13,5 C 13,9 C 56 % 1020,0 hPa 0,0 mm 15,0 km/h (3 Bft) NW 315 4,9 C 20,5 km/h (4 Bft)
19.11.2015 11:50 13,4 C 13,9 C 56 % 1019,9 hPa 0,0 mm 16,6 km/h (3 Bft) W 270 4,8 C 15,5 km/h (3 Bft)
19.11.2015 11:55 13,4 C 13,6 C 56 % 1019,9 hPa 0,0 mm 15,3 km/h (3 Bft) W 270 4,8 C 18,1 km/h (3 Bft)
19.11.2015 12:00 13,4 C 13,7 C 56 % 1019,9 hPa 0,0 mm 15,0 km/h (3 Bft) W-SW 247 4,8 C 21,8 km/h (4 Bft)
19.11.2015 12:05 13,4 C 13,6 C 56 % 1019,9 hPa 0,0 mm 16,6 km/h (3 Bft) W-NW 292 4,8 C 30,0 km/h (5 Bft)
19.11.2015 12:10 13,6 C 13,9 C 57 % 1020,0 hPa 0,0 mm 15,3 km/h (3 Bft) W-SW 247 5,2 C 8,3 km/h (2 Bft)
19.11.2015 12:15 13,8 C 14,3 C 56 % 1020,0 hPa 0,0 mm 14,0 km/h (3 Bft) SW 225 5,2 C 14,5 km/h (3 Bft)
19.11.2015 12:20 13,9 C 14,7 C 56 % 1020,0 hPa 0,0 mm 13,7 km/h (3 Bft) W 270 5,3 C 32,4 km/h (5 Bft)
19.11.2015 12:25 14,0 C 14,8 C 56 % 1020,0 hPa 0,0 mm 17,1 km/h (3 Bft) SW 225 5,4 C 17,3 km/h (3 Bft)
19.11.2015 12:30 13,9 C 14,5 C 56 % 1019,9 hPa 0,0 mm 19,9 km/h (4 Bft) W-SW 247 5,3 C 17,3 km/h (3 Bft)
19.11.2015 12:35 13,9 C 14,3 C 56 % 1019,9 hPa 0,0 mm 18,6 km/h (3 Bft) W-NW 292 5,3 C 25,4 km/h (4 Bft)
19.11.2015 12:40 13,6 C 14,0 C 56 % 1019,9 hPa 0,0 mm 17,6 km/h (3 Bft) W 270 5,0 C 27,2 km/h (4 Bft)
19.11.2015 12:45 13,5 C 13,7 C 57 % 1019,9 hPa 0,0 mm 16,3 km/h (3 Bft) SW 225 5,2 C 18,6 km/h (3 Bft)
19.11.2015 12:50 13,6 C 14,0 C 57 % 1019,5 hPa 0,0 mm 13,7 km/h (3 Bft) W-SW 247 5,2 C 26,9 km/h (4 Bft)
19.11.2015 12:55 13,6 C 14,2 C 57 % 1019,5 hPa 0,0 mm 12,9 km/h (3 Bft) SW 225 5,2 C 9,3 km/h (2 Bft)
19.11.2015 13:00 13,6 C 14,2 C 57 % 1019,5 hPa 0,0 mm 13,5 km/h (3 Bft) W-SW 247 5,2 C 18,1 km/h (3 Bft)
19.11.2015 13:05 13,5 C 14,1 C 57 % 1019,5 hPa 0,0 mm 14,0 km/h (3 Bft) W 270 5,2 C 25,9 km/h (4 Bft)
19.11.2015 13:10 13,3 C 13,6 C 56 % 1019,5 hPa 0,0 mm 17,1 km/h (3 Bft) W-SW 247 4,7 C 17,1 km/h (3 Bft)
19.11.2015 13:15 13,1 C 13,1 C 57 % 1019,5 hPa 0,0 mm 14,5 km/h (3 Bft) W 270 4,8 C 16,8 km/h (3 Bft)
19.11.2015 13:20 13,2 C 13,4 C 57 % 1019,5 hPa 0,0 mm 12,2 km/h (2 Bft) W-SW 247 4,9 C 22,5 km/h (4 Bft)
19.11.2015 13:25 13,2 C 13,5 C 57 % 1019,5 hPa 0,0 mm 11,9 km/h (2 Bft) W-SW 247 4,9 C 14,0 km/h (3 Bft)
19.11.2015 13:30 13,7 C 15,5 C 57 % 1019,3 hPa 0,0 mm 11,4 km/h (2 Bft) W 270 5,3 C 24,6 km/h (4 Bft)
19.11.2015 13:35 14,3 C 16,6 C 57 % 1019,3 hPa 0,0 mm 10,9 km/h (2 Bft) W-NW 292 5,9 C 17,1 km/h (3 Bft)
19.11.2015 13:40 14,8 C 18,0 C 56 % 1019,3 hPa 0,0 mm 11,1 km/h (2 Bft) W-SW 247 6,1 C 12,2 km/h (2 Bft)
19.11.2015 13:45 14,7 C 18,3 C 55 % 1019,3 hPa 0,0 mm 12,2 km/h (2 Bft) W 270 5,8 C 17,3 km/h (3 Bft)
19.11.2015 13:50 14,6 C 17,9 C 55 % 1019,2 hPa 0,0 mm 11,9 km/h (2 Bft) S-SW 202 5,7 C 11,1 km/h (2 Bft)
19.11.2015 13:55 14,5 C 17,7 C 55 % 1019,2 hPa 0,0 mm 9,8 km/h (2 Bft) W 270 5,6 C 25,6 km/h (4 Bft)
19.11.2015 14:00 14,5 C 18,4 C 54 % 1019,2 hPa 0,0 mm 11,1 km/h (2 Bft) W 270 5,3 C 8,5 km/h (2 Bft)
19.11.2015 14:05 14,5 C 18,9 C 54 % 1019,2 hPa 0,0 mm 11,7 km/h (2 Bft) W-SW 247 5,3 C 13,5 km/h (3 Bft)
19.11.2015 14:10 14,4 C 18,9 C 54 % 1019,6 hPa 0,0 mm 11,4 km/h (2 Bft) W 270 5,2 C 17,6 km/h (3 Bft)
19.11.2015 14:15 14,2 C 17,8 C 55 % 1019,6 hPa 0,0 mm 12,4 km/h (3 Bft) W-SW 247 5,3 C 11,7 km/h (2 Bft)
19.11.2015 14:20 14,2 C 16,9 C 54 % 1019,6 hPa 0,0 mm 14,5 km/h (3 Bft) W-SW 247 5,0 C 31,6 km/h (5 Bft)
19.11.2015 14:25 14,3 C 16,3 C 54 % 1019,6 hPa 0,0 mm 14,8 km/h (3 Bft) SW 225 5,1 C 13,7 km/h (3 Bft)
19.11.2015 14:30 14,2 C 16,1 C 53 % 1019,5 hPa 0,0 mm 15,5 km/h (3 Bft) W 270 4,8 C 17,1 km/h (3 Bft)
19.11.2015 14:35 14,0 C 15,8 C 52 % 1019,5 hPa 0,0 mm 15,0 km/h (3 Bft) SW 225 4,3 C 6,2 km/h (2 Bft)
19.11.2015 14:40 14,1 C 15,5 C 52 % 1019,5 hPa 0,0 mm 16,3 km/h (3 Bft) W 270 4,4 C 19,2 km/h (3 Bft)
19.11.2015 14:45 14,0 C 15,1 C 52 % 1019,5 hPa 0,0 mm 15,0 km/h (3 Bft) W 270 4,3 C 13,2 km/h (3 Bft)
19.11.2015 14:50 13,6 C 14,5 C 52 % 1019,4 hPa 0,0 mm 13,5 km/h (3 Bft) W-SW 247 3,9 C 14,5 km/h (3 Bft)
19.11.2015 14:55 13,5 C 14,2 C 52 % 1019,4 hPa 0,0 mm 12,4 km/h (3 Bft) W-NW 292 3,8 C 17,1 km/h (3 Bft)
19.11.2015 15:00 13,4 C 14,9 C 53 % 1019,4 hPa 0,0 mm 13,2 km/h (3 Bft) W-SW 247 4,0 C 21,0 km/h (4 Bft)
19.11.2015 15:05 13,4 C 15,2 C 53 % 1019,4 hPa 0,0 mm 14,0 km/h (3 Bft) W-SW 247 4,0 C 18,6 km/h (3 Bft)
19.11.2015 15:10 13,3 C 15,9 C 53 % 1019,2 hPa 0,0 mm 13,2 km/h (3 Bft) NO 45 3,9 C 26,2 km/h (4 Bft)
19.11.2015 15:15 13,5 C 15,8 C 53 % 1019,2 hPa 0,0 mm 12,4 km/h (3 Bft) W 270 4,1 C 10,4 km/h (2 Bft)
19.11.2015 15:20 13,4 C 15,0 C 53 % 1019,2 hPa 0,0 mm 13,2 km/h (3 Bft) W 270 4,0 C 25,6 km/h (4 Bft)
19.11.2015 15:25 13,2 C 14,0 C 53 % 1019,2 hPa 0,0 mm 13,7 km/h (3 Bft) W-SW 247 3,8 C 13,2 km/h (3 Bft)
19.11.2015 15:30 12,9 C 13,3 C 54 % 1019,0 hPa 0,0 mm 14,8 km/h (3 Bft) SW 225 3,8 C 12,2 km/h (2 Bft)
19.11.2015 15:35 12,7 C 12,7 C 55 % 1019,0 hPa 0,0 mm 12,9 km/h (3 Bft) W-SW 247 3,9 C 19,4 km/h (3 Bft)
19.11.2015 15:40 12,7 C 12,6 C 56 % 1019,0 hPa 0,0 mm 13,5 km/h (3 Bft) W-SW 247 4,2 C 28,5 km/h (4 Bft)
19.11.2015 15:45 12,6 C 12,4 C 56 % 1019,0 hPa 0,0 mm 14,5 km/h (3 Bft) W-SW 247 4,1 C 14,8 km/h (3 Bft)
19.11.2015 15:50 12,5 C 12,4 C 56 % 1019,0 hPa 0,0 mm 13,7 km/h (3 Bft) W-SW 247 4,0 C 12,2 km/h (2 Bft)
19.11.2015 15:55 12,5 C 12,4 C 56 % 1019,0 hPa 0,0 mm 13,5 km/h (3 Bft) W-NW 292 4,0 C 15,3 km/h (3 Bft)
19.11.2015 16:00 12,5 C 12,4 C 56 % 1019,0 hPa 0,0 mm 14,5 km/h (3 Bft) W 270 4,0 C 17,9 km/h (3 Bft)
19.11.2015 16:05 12,5 C 12,3 C 56 % 1019,0 hPa 0,0 mm 14,2 km/h (3 Bft) W-SW 247 4,0 C 18,6 km/h (3 Bft)
19.11.2015 16:10 12,3 C 12,2 C 56 % 1018,8 hPa 0,0 mm 10,4 km/h (2 Bft) W-SW 247 3,8 C 8,5 km/h (2 Bft)
19.11.2015 16:15 11,9 C 12,0 C 56 % 1018,8 hPa 0,0 mm 8,0 km/h (2 Bft) SW 225 3,4 C 13,2 km/h (3 Bft)
19.11.2015 16:20 11,8 C 11,7 C 57 % 1018,8 hPa 0,0 mm 8,5 km/h (2 Bft) W 270 3,6 C 22,5 km/h (4 Bft)
19.11.2015 16:25 11,7 C 11,5 C 57 % 1018,8 hPa 0,0 mm 9,8 km/h (2 Bft) SW 225 3,5 C 14,2 km/h (3 Bft)
19.11.2015 16:30 11,6 C 11,4 C 57 % 1018,2 hPa 0,0 mm 9,8 km/h (2 Bft) W-SW 247 3,4 C 10,9 km/h (2 Bft)
19.11.2015 16:35 11,6 C 11,4 C 57 % 1018,2 hPa 0,0 mm 9,3 km/h (2 Bft) S-SW 202 3,4 C 8,0 km/h (2 Bft)
19.11.2015 16:40 11,2 C 11,2 C 57 % 1018,2 hPa 0,0 mm 8,3 km/h (2 Bft) SW 225 3,0 C 11,9 km/h (2 Bft)
19.11.2015 16:45 11,1 C 11,0 C 58 % 1018,2 hPa 0,0 mm 7,8 km/h (2 Bft) S-SW 202 3,2 C 11,1 km/h (2 Bft)
19.11.2015 16:50 11,1 C 10,9 C 58 % 1018,4 hPa 0,0 mm 7,8 km/h (2 Bft) W-SW 247 3,2 C 14,8 km/h (3 Bft)
19.11.2015 16:55 11,3 C 11,1 C 58 % 1018,4 hPa 0,0 mm 8,0 km/h (2 Bft) W-SW 247 3,3 C 8,8 km/h (2 Bft)
19.11.2015 17:00 11,2 C 11,0 C 58 % 1018,4 hPa 0,0 mm 8,3 km/h (2 Bft) S 180 3,2 C 10,4 km/h (2 Bft)
19.11.2015 17:05 11,2 C 11,0 C 58 % 1018,4 hPa 0,0 mm 8,5 km/h (2 Bft) SW 225 3,2 C 11,9 km/h (2 Bft)
19.11.2015 17:10 11,4 C 11,1 C 58 % 1018,3 hPa 0,0 mm 9,8 km/h (2 Bft) W 270 3,4 C 11,9 km/h (2 Bft)
19.11.2015 17:15 11,5 C 11,2 C 58 % 1018,3 hPa 0,0 mm 10,1 km/h (2 Bft) W-SW 247 3,5 C 11,9 km/h (2 Bft)
19.11.2015 17:20 11,6 C 11,3 C 58 % 1018,3 hPa 0,0 mm 9,6 km/h (2 Bft) W 270 3,6 C 8,8 km/h (2 Bft)
19.11.2015 17:25 11,6 C 11,3 C 58 % 1018,3 hPa 0,0 mm 10,1 km/h (2 Bft) W 270 3,6 C 13,7 km/h (3 Bft)
19.11.2015 17:30 12,0 C 11,7 C 57 % 1018,2 hPa 0,0 mm 11,9 km/h (2 Bft) W 270 3,8 C 7,3 km/h (2 Bft)
19.11.2015 17:35 12,1 C 11,8 C 57 % 1018,2 hPa 0,0 mm 12,7 km/h (3 Bft) W-SW 247 3,8 C 17,3 km/h (3 Bft)
19.11.2015 17:40 12,1 C 11,9 C 57 % 1018,2 hPa 0,0 mm 10,1 km/h (2 Bft) SW 225 3,8 C 12,2 km/h (2 Bft)
19.11.2015 17:45 12,2 C 12,0 C 57 % 1018,2 hPa 0,0 mm 10,4 km/h (2 Bft) W-SW 247 3,9 C 15,3 km/h (3 Bft)
19.11.2015 17:50 12,5 C 12,2 C 56 % 1017,9 hPa 0,0 mm 11,9 km/h (2 Bft) W-NW 292 4,0 C 12,9 km/h (3 Bft)
19.11.2015 17:55 12,6 C 12,4 C 56 % 1017,9 hPa 0,0 mm 12,4 km/h (3 Bft) SW 225 4,1 C 11,4 km/h (2 Bft)
19.11.2015 18:00 13,1 C 12,8 C 55 % 1017,9 hPa 0,0 mm 13,7 km/h (3 Bft) W 270 4,3 C 18,4 km/h (3 Bft)
19.11.2015 18:05 13,2 C 12,8 C 54 % 1017,9 hPa 0,0 mm 15,8 km/h (3 Bft) W-SW 247 4,1 C 13,5 km/h (3 Bft)
19.11.2015 18:10 13,2 C 13,0 C 54 % 1017,5 hPa 0,0 mm 15,0 km/h (3 Bft) W 270 4,1 C 18,1 km/h (3 Bft)
19.11.2015 18:15 13,1 C 13,0 C 53 % 1017,5 hPa 0,0 mm 12,4 km/h (3 Bft) W 270 3,7 C 18,1 km/h (3 Bft)
19.11.2015 18:20 13,1 C 13,0 C 53 % 1017,5 hPa 0,0 mm 12,9 km/h (3 Bft) NW 315 3,7 C 14,2 km/h (3 Bft)
19.11.2015 18:25 13,0 C 12,9 C 53 % 1017,5 hPa 0,0 mm 13,7 km/h (3 Bft) S-SW 202 3,6 C 18,9 km/h (3 Bft)
19.11.2015 18:30 12,8 C 12,6 C 53 % 1017,1 hPa 0,0 mm 11,4 km/h (2 Bft) W-SW 247 3,5 C 7,5 km/h (2 Bft)
19.11.2015 18:35 12,8 C 12,6 C 53 % 1017,1 hPa 0,0 mm 10,6 km/h (2 Bft) SW 225 3,5 C 15,3 km/h (3 Bft)
19.11.2015 18:40 13,0 C 12,7 C 53 % 1017,1 hPa 0,0 mm 11,4 km/h (2 Bft) S 180 3,6 C 16,8 km/h (3 Bft)
19.11.2015 18:45 13,0 C 12,8 C 53 % 1017,1 hPa 0,0 mm 11,4 km/h (2 Bft) W-SW 247 3,6 C 15,8 km/h (3 Bft)
19.11.2015 18:50 13,6 C 13,3 C 52 % 1017,5 hPa 0,0 mm 13,7 km/h (3 Bft) W-NW 292 3,9 C 14,2 km/h (3 Bft)
19.11.2015 18:55 13,9 C 13,5 C 51 % 1017,5 hPa 0,0 mm 16,8 km/h (3 Bft) W-NW 292 3,9 C 26,9 km/h (4 Bft)
19.11.2015 19:00 13,7 C 13,5 C 50 % 1017,5 hPa 0,0 mm 18,9 km/h (3 Bft) W-SW 247 3,5 C 54,9 km/h (7 Bft)
19.11.2015 19:05 13,3 C 13,2 C 51 % 1017,5 hPa 0,0 mm 18,9 km/h (3 Bft) W-SW 247 3,4 C 25,6 km/h (4 Bft)
19.11.2015 19:10 13,1 C 13,0 C 52 % 1017,6 hPa 0,0 mm 17,1 km/h (3 Bft) W 270 3,5 C 18,1 km/h (3 Bft)
19.11.2015 19:15 13,2 C 13,0 C 52 % 1017,6 hPa 0,0 mm 17,6 km/h (3 Bft) W 270 3,6 C 30,8 km/h (5 Bft)
19.11.2015 19:20 13,2 C 12,9 C 52 % 1017,6 hPa 0,0 mm 18,4 km/h (3 Bft) W-SW 247 3,6 C 26,2 km/h (4 Bft)
19.11.2015 19:25 13,0 C 12,8 C 52 % 1017,6 hPa 0,0 mm 16,8 km/h (3 Bft) W-SW 247 3,4 C 24,3 km/h (4 Bft)
19.11.2015 19:30 13,2 C 12,9 C 52 % 1016,9 hPa 0,0 mm 14,5 km/h (3 Bft) W 270 3,6 C 26,2 km/h (4 Bft)
19.11.2015 19:35 13,3 C 13,0 C 52 % 1016,9 hPa 0,0 mm 15,0 km/h (3 Bft) S 180 3,7 C 19,7 km/h (3 Bft)
19.11.2015 19:40 13,5 C 13,2 C 52 % 1016,9 hPa 0,0 mm 15,5 km/h (3 Bft) W-SW 247 3,8 C 26,7 km/h (4 Bft)
19.11.2015 19:45 13,4 C 13,1 C 51 % 1016,9 hPa 0,0 mm 15,0 km/h (3 Bft) W 270 3,5 C 18,6 km/h (3 Bft)
19.11.2015 19:50 13,7 C 13,4 C 51 % 1016,7 hPa 0,0 mm 15,8 km/h (3 Bft) W-SW 247 3,8 C 17,9 km/h (3 Bft)
19.11.2015 19:55 13,6 C 13,3 C 51 % 1016,7 hPa 0,0 mm 15,8 km/h (3 Bft) W-SW 247 3,7 C 10,1 km/h (2 Bft)
19.11.2015 20:00 13,9 C 13,6 C 50 % 1016,7 hPa 0,0 mm 16,6 km/h (3 Bft) W-SW 247 3,7 C 30,3 km/h (5 Bft)
19.11.2015 20:05 14,0 C 13,7 C 50 % 1016,7 hPa 0,0 mm 17,9 km/h (3 Bft) W-SW 247 3,7 C 23,6 km/h (4 Bft)
19.11.2015 20:10 13,7 C 13,5 C 50 % 1016,9 hPa 0,0 mm 20,5 km/h (4 Bft) W-SW 247 3,5 C 31,6 km/h (5 Bft)
19.11.2015 20:15 13,5 C 13,3 C 51 % 1016,9 hPa 0,0 mm 20,2 km/h (4 Bft) W-SW 247 3,6 C 25,9 km/h (4 Bft)
19.11.2015 20:20 13,3 C 13,1 C 52 % 1016,9 hPa 0,0 mm 16,6 km/h (3 Bft) NW 315 3,7 C 20,2 km/h (4 Bft)
19.11.2015 20:25 13,3 C 13,1 C 52 % 1016,9 hPa 0,0 mm 16,6 km/h (3 Bft) SO 135 3,7 C 11,7 km/h (2 Bft)
19.11.2015 20:30 12,9 C 12,8 C 54 % 1016,7 hPa 0,0 mm 14,5 km/h (3 Bft) SW 225 3,8 C 16,1 km/h (3 Bft)
19.11.2015 20:32 12,9 C 12,7 C 54 % 1016,7 hPa 0,0 mm 14,5 km/h (3 Bft) SW 225 3,8 C 16,1 km/h (3 Bft)
19.11.2015 20:35 12,9 C 12,7 C 54 % 1016,7 hPa 0,0 mm 12,7 km/h (3 Bft) W-NW 292 3,8 C 31,1 km/h (5 Bft)
19.11.2015 20:40 12,8 C 12,6 C 55 % 1016,7 hPa 0,0 mm 12,9 km/h (3 Bft) W-SW 247 4,0 C 10,6 km/h (2 Bft)
19.11.2015 20:45 12,8 C 12,6 C 54 % 1016,7 hPa 0,0 mm 13,5 km/h (3 Bft) W 270 3,7 C 16,8 km/h (3 Bft)
19.11.2015 20:50 13,2 C 12,9 C 53 % 1016,7 hPa 0,0 mm 15,8 km/h (3 Bft) W 270 3,8 C 17,6 km/h (3 Bft)
19.11.2015 20:55 13,2 C 12,9 C 53 % 1016,7 hPa 0,0 mm 16,1 km/h (3 Bft) W-SW 247 3,8 C 11,9 km/h (2 Bft)
19.11.2015 21:00 13,2 C 12,9 C 53 % 1016,7 hPa 0,0 mm 15,3 km/h (3 Bft) W-SW 247 3,8 C 28,7 km/h (4 Bft)
19.11.2015 21:05 13,1 C 12,8 C 53 % 1016,7 hPa 0,0 mm 16,3 km/h (3 Bft) W-SW 247 3,7 C 27,4 km/h (4 Bft)
19.11.2015 21:10 13,2 C 12,9 C 53 % 1016,4 hPa 0,0 mm 16,6 km/h (3 Bft) W-SW 247 3,8 C 17,9 km/h (3 Bft)
19.11.2015 21:15 13,1 C 12,9 C 53 % 1016,4 hPa 0,0 mm 15,0 km/h (3 Bft) W 270 3,7 C 19,9 km/h (4 Bft)
19.11.2015 21:20 13,2 C 12,9 C 53 % 1016,4 hPa 0,0 mm 14,8 km/h (3 Bft) SW 225 3,8 C 11,9 km/h (2 Bft)
19.11.2015 21:25 13,3 C 13,0 C 53 % 1016,4 hPa 0,0 mm 14,8 km/h (3 Bft) W-SW 247 3,9 C 19,7 km/h (3 Bft)
19.11.2015 21:30 13,4 C 13,0 C 52 % 1016,3 hPa 0,0 mm 16,8 km/h (3 Bft) W 270 3,7 C 30,3 km/h (5 Bft)
19.11.2015 21:35 13,5 C 13,2 C 52 % 1016,3 hPa 0,0 mm 16,3 km/h (3 Bft) W-SW 247 3,8 C 17,3 km/h (3 Bft)
19.11.2015 21:40 13,6 C 13,4 C 52 % 1016,3 hPa 0,0 mm 15,8 km/h (3 Bft) W-SW 247 3,9 C 22,8 km/h (4 Bft)
19.11.2015 21:45 13,5 C 13,3 C 52 % 1016,3 hPa 0,0 mm 14,2 km/h (3 Bft) W-SW 247 3,8 C 17,9 km/h (3 Bft)
19.11.2015 21:50 13,5 C 13,3 C 51 % 1016,2 hPa 0,0 mm 14,8 km/h (3 Bft) W-SW 247 3,6 C 19,7 km/h (3 Bft)
19.11.2015 21:55 13,7 C 13,4 C 51 % 1016,2 hPa 0,0 mm 16,1 km/h (3 Bft) SW 225 3,8 C 11,4 km/h (2 Bft)
19.11.2015 22:00 13,5 C 13,2 C 51 % 1016,2 hPa 0,0 mm 15,5 km/h (3 Bft) W-SW 247 3,6 C 13,7 km/h (3 Bft)
19.11.2015 22:05 13,7 C 13,4 C 51 % 1016,2 hPa 0,0 mm 16,6 km/h (3 Bft) W-SW 247 3,8 C 50,0 km/h (6 Bft)
19.11.2015 22:10 13,9 C 13,5 C 51 % 1016,3 hPa 0,0 mm 22,3 km/h (4 Bft) W-SW 247 3,9 C 30,8 km/h (5 Bft)
19.11.2015 22:15 13,7 C 13,4 C 52 % 1016,3 hPa 0,0 mm 22,5 km/h (4 Bft) W-SW 247 4,0 C 18,4 km/h (3 Bft)
19.11.2015 22:20 13,6 C 13,2 C 52 % 1016,3 hPa 0,0 mm 19,9 km/h (4 Bft) W-SW 247 3,9 C 34,2 km/h (5 Bft)
19.11.2015 22:25 13,5 C 13,2 C 53 % 1016,3 hPa 0,0 mm 19,4 km/h (3 Bft) NW 315 4,1 C 17,6 km/h (3 Bft)
19.11.2015 22:30 13,5 C 13,1 C 53 % 1015,9 hPa 0,0 mm 17,9 km/h (3 Bft) SW 225 4,1 C 34,4 km/h (5 Bft)
19.11.2015 22:35 13,4 C 13,1 C 54 % 1015,9 hPa 0,0 mm 18,6 km/h (3 Bft) SW 225 4,3 C 19,2 km/h (3 Bft)
19.11.2015 22:41 13,4 C 11,7 C 54 % 1015,9 hPa 0,0 mm 17,6 km/h (3 Bft) W-SW 247 4,3 C 25,1 km/h (4 Bft)
19.11.2015 22:45 13,5 C 13,1 C 54 % 1015,9 hPa 0,0 mm 17,1 km/h (3 Bft) NW 315 4,4 C 20,2 km/h (4 Bft)
19.11.2015 22:50 13,3 C 13,1 C 54 % 1015,2 hPa 0,0 mm 15,8 km/h (3 Bft) W-NW 292 4,2 C 11,7 km/h (2 Bft)
19.11.2015 22:55 13,3 C 13,0 C 54 % 1015,2 hPa 0,0 mm 14,5 km/h (3 Bft) W-SW 247 4,2 C 13,2 km/h (3 Bft)
19.11.2015 23:00 13,7 C 13,4 C 54 % 1015,2 hPa 0,0 mm 15,5 km/h (3 Bft) W 270 4,6 C 27,7 km/h (4 Bft)
19.11.2015 23:05 13,9 C 13,5 C 53 % 1015,2 hPa 0,0 mm 16,8 km/h (3 Bft) W-SW 247 4,5 C 13,2 km/h (3 Bft)
19.11.2015 23:10 14,1 C 13,7 C 52 % 1015,1 hPa 0,0 mm 18,9 km/h (3 Bft) W-SW 247 4,4 C 37,0 km/h (5 Bft)
19.11.2015 23:15 14,0 C 13,7 C 52 % 1015,1 hPa 0,0 mm 18,4 km/h (3 Bft) W-SW 247 4,3 C 43,5 km/h (6 Bft)
19.11.2015 23:20 14,1 C 13,7 C 52 % 1015,1 hPa 0,0 mm 18,6 km/h (3 Bft) SO 135 4,4 C 20,2 km/h (4 Bft)
19.11.2015 23:25 14,1 C 13,8 C 52 % 1015,1 hPa 0,0 mm 18,1 km/h (3 Bft) W-SW 247 4,4 C 25,9 km/h (4 Bft)
19.11.2015 23:30 14,2 C 13,8 C 52 % 1014,9 hPa 0,0 mm 18,6 km/h (3 Bft) W-SW 247 4,5 C 44,3 km/h (6 Bft)
19.11.2015 23:35 14,2 C 13,9 C 52 % 1014,9 hPa 0,0 mm 17,3 km/h (3 Bft) W 270 4,5 C 19,7 km/h (3 Bft)
19.11.2015 23:40 14,0 C 13,7 C 52 % 1014,9 hPa 0,0 mm 15,0 km/h (3 Bft) W-SW 247 4,3 C 15,8 km/h (3 Bft)
19.11.2015 23:45 14,3 C 14,0 C 52 % 1014,9 hPa 0,0 mm 15,5 km/h (3 Bft) S-SW 202 4,6 C 20,2 km/h (4 Bft)
19.11.2015 23:50 14,4 C 14,0 C 52 % 1014,8 hPa 0,0 mm 18,9 km/h (3 Bft) W-SW 247 4,7 C 28,7 km/h (4 Bft)
19.11.2015 23:55 14,5 C 14,2 C 52 % 1014,8 hPa 0,0 mm 18,6 km/h (3 Bft) W-NW 292 4,8 C 15,8 km/h (3 Bft)
_ Min-Zeit 01:50 02:00 05:50 23:55 - 06:25 - - 02:20 06:30
Minimum _ 8,7 C 8,4 C 47 % 1014,8 hPa - 4,4 km/h (1 Bft) - - -1,0 C 4,1 km/h (1 Bft)
_ Max-Zeit 13:40 14:10 17:25 02:05 23:55 22:15 - - 13:40 19:00
Maximum _ 14,8 C 18,9 C 58 % 1021,0 hPa 0,0 mm 22,5 km/h
W-SW (4 Bft)
- - 6,1 C 54,9 km/h
W-SW (7 Bft)
Durchschnitt _ 12,1 C 12,1 C 54 % 1018,8 hPa #0,0 mm 12,9 km/h (3 Bft) W-SW - 2,9 C 17,1 km/h (3 Bft)